APG320 RPLL-RPVA

Flight info

Callsign APG320
Flight time 0h 57m
Altitude 33000
Route IPATA2R IPATA B462 ARREX ARREX2R
Aircraft A320/M-SDE3FGHIRWY/LB1

Departure

Time 2026-04-25 00:54
Airport Ninoy Aquino International Airport (RPLL)

Arrival

Time 2026-04-25 01:51
Airport Daniel Z. Romualdez Airport (RPVA)
Time Latitude Longitude Altitude Speed Heading
2026-04-25 00:30 14.50848 121.01303 69 ft 0 kts 330°
2026-04-25 00:40 14.50839 121.01308 61 ft 3 kts 330°
2026-04-25 00:40 14.50819 121.01320 64 ft 3 kts 330°
2026-04-25 00:41 14.50802 121.01329 62 ft 3 kts 330°
2026-04-25 00:41 14.50784 121.01342 60 ft 3 kts 307°
2026-04-25 00:41 14.50777 121.01361 64 ft 3 kts 249°
2026-04-25 00:41 14.50779 121.01367 60 ft 0 kts 240°
2026-04-25 00:46 14.50772 121.01355 62 ft 4 kts 240°
2026-04-25 00:46 14.50696 121.01319 69 ft 8 kts 168°
2026-04-25 00:47 14.50656 121.01298 69 ft 6 kts 234°
2026-04-25 00:47 14.50627 121.01245 66 ft 11 kts 240°
2026-04-25 00:47 14.50581 121.01162 67 ft 16 kts 240°
2026-04-25 00:47 14.50525 121.01061 67 ft 16 kts 240°
2026-04-25 00:48 14.50468 121.00960 67 ft 16 kts 240°
2026-04-25 00:48 14.50414 121.00861 65 ft 15 kts 240°
2026-04-25 00:48 14.50362 121.00769 64 ft 14 kts 240°
2026-04-25 00:48 14.50316 121.00685 66 ft 13 kts 240°
2026-04-25 00:49 14.50264 121.00592 68 ft 17 kts 240°
2026-04-25 00:49 14.50207 121.00491 62 ft 16 kts 240°
2026-04-25 00:49 14.50153 121.00393 62 ft 15 kts 240°
2026-04-25 00:49 14.50103 121.00304 67 ft 15 kts 240°
2026-04-25 00:50 14.50049 121.00206 68 ft 15 kts 240°
2026-04-25 00:50 14.49999 121.00117 64 ft 13 kts 240°
2026-04-25 00:50 14.49957 121.00041 65 ft 11 kts 240°
2026-04-25 00:50 14.49919 120.99976 65 ft 10 kts 229°
2026-04-25 00:51 14.49862 120.99972 62 ft 8 kts 150°
2026-04-25 00:51 14.49815 121.00003 65 ft 8 kts 140°
2026-04-25 00:51 14.49806 121.00015 67 ft 3 kts 122°
2026-04-25 00:51 14.49805 121.00041 65 ft 4 kts 80°
2026-04-25 00:52 14.49814 121.00061 67 ft 2 kts 59°
2026-04-25 00:52 14.49818 121.00067 67 ft 0 kts 59°
2026-04-25 00:53 14.49821 121.00073 65 ft 6 kts 59°
2026-04-25 00:54 14.49970 121.00339 67 ft 80 kts 60°
2026-04-25 00:54 14.50348 121.01019 68 ft 138 kts 60°
2026-04-25 00:54 14.50896 121.01991 311 ft 164 kts 62°
2026-04-25 00:54 14.51472 121.03019 960 ft 166 kts 62°
2026-04-25 00:55 14.52045 121.04056 1719 ft 166 kts 61°
2026-04-25 00:55 14.52613 121.05085 2401 ft 165 kts 62°
2026-04-25 00:55 14.53177 121.06109 3139 ft 164 kts 60°
2026-04-25 00:55 14.53557 121.06795 3521 ft 171 kts 61°
2026-04-25 00:56 14.54181 121.07926 3842 ft 192 kts 61°
2026-04-25 00:56 14.55136 121.09654 4355 ft 222 kts 62°
2026-04-25 00:56 14.55911 121.11050 5201 ft 226 kts 61°
2026-04-25 00:56 14.56688 121.12476 6075 ft 229 kts 65°
2026-04-25 00:57 14.57092 121.13491 6643 ft 231 kts 73°
2026-04-25 00:57 14.57429 121.15124 7451 ft 234 kts 84°
2026-04-25 00:57 14.57615 121.16813 8138 ft 239 kts 83°
2026-04-25 00:57 14.57809 121.18537 8812 ft 244 kts 83°
2026-04-25 00:58 14.58012 121.20301 9493 ft 249 kts 83°
2026-04-25 00:58 14.58215 121.22076 10128 ft 254 kts 83°
2026-04-25 00:58 14.58137 121.23907 10748 ft 258 kts 105°
2026-04-25 00:58 14.57498 121.25647 11399 ft 260 kts 118°
2026-04-25 00:59 14.56548 121.27236 12093 ft 261 kts 128°
2026-04-25 00:59 14.55381 121.28643 12773 ft 262 kts 137°
2026-04-25 00:59 14.53985 121.29853 13461 ft 263 kts 144°
2026-04-25 00:59 14.52509 121.30982 14105 ft 265 kts 144°
2026-04-25 01:00 14.51019 121.32125 14657 ft 269 kts 144°
2026-04-25 01:00 14.49507 121.33288 15195 ft 273 kts 145°
2026-04-25 01:00 14.47972 121.34468 15737 ft 277 kts 145°
2026-04-25 01:00 14.46412 121.35666 16253 ft 282 kts 145°
2026-04-25 01:01 14.44827 121.36884 16767 ft 286 kts 145°
2026-04-25 01:01 14.43221 121.38120 17286 ft 290 kts 144°
2026-04-25 01:01 14.41613 121.39356 17809 ft 293 kts 145°
2026-04-25 01:01 14.39961 121.40620 18334 ft 296 kts 145°
2026-04-25 01:02 14.38296 121.41894 18791 ft 299 kts 145°
2026-04-25 01:02 14.36619 121.43177 19272 ft 301 kts 145°
2026-04-25 01:02 14.34933 121.44467 19761 ft 302 kts 145°
2026-04-25 01:02 14.33239 121.45765 20249 ft 303 kts 145°
2026-04-25 01:03 14.31541 121.47066 20754 ft 304 kts 146°
2026-04-25 01:03 14.29830 121.48375 21240 ft 307 kts 146°
2026-04-25 01:03 14.28110 121.49691 21739 ft 308 kts 146°
2026-04-25 01:03 14.26402 121.50995 22220 ft 310 kts 146°
2026-04-25 01:04 14.24657 121.52323 22714 ft 312 kts 146°
2026-04-25 01:04 14.22904 121.53655 23204 ft 314 kts 146°
2026-04-25 01:04 14.21135 121.54997 23677 ft 316 kts 146°
2026-04-25 01:04 14.19358 121.56351 24068 ft 318 kts 146°
2026-04-25 01:05 14.17564 121.57722 24443 ft 321 kts 146°
2026-04-25 01:05 14.15758 121.59103 24828 ft 324 kts 146°
2026-04-25 01:05 14.13964 121.60471 25202 ft 327 kts 146°
2026-04-25 01:05 14.12122 121.61871 25569 ft 330 kts 146°
2026-04-25 01:06 14.10268 121.63282 25944 ft 332 kts 146°
2026-04-25 01:06 14.08392 121.64708 26315 ft 336 kts 146°
2026-04-25 01:06 14.06505 121.66145 26685 ft 338 kts 146°
2026-04-25 01:06 14.04604 121.67596 27050 ft 341 kts 146°
2026-04-25 01:07 14.02687 121.69064 27409 ft 344 kts 146°
2026-04-25 01:07 14.00776 121.70527 27763 ft 347 kts 146°
2026-04-25 01:07 13.98823 121.72018 28132 ft 350 kts 146°
2026-04-25 01:07 13.96858 121.73514 28489 ft 353 kts 146°
2026-04-25 01:08 13.94872 121.75026 28833 ft 355 kts 146°
2026-04-25 01:08 13.92878 121.76544 29190 ft 358 kts 146°
2026-04-25 01:08 13.90868 121.78076 29537 ft 361 kts 146°
2026-04-25 01:08 13.88842 121.79619 29873 ft 364 kts 146°
2026-04-25 01:09 13.86889 121.81249 30185 ft 368 kts 140°
2026-04-25 01:09 13.85095 121.83158 30473 ft 372 kts 132°
2026-04-25 01:09 13.83430 121.85216 30755 ft 375 kts 133°
2026-04-25 01:09 13.81753 121.87279 31047 ft 377 kts 133°
2026-04-25 01:10 13.80055 121.89354 31348 ft 379 kts 133°
2026-04-25 01:10 13.79531 121.89993 31449 ft 379 kts 133°
2026-04-25 01:10 13.77846 121.92048 31746 ft 381 kts 133°
2026-04-25 01:10 13.76129 121.94149 32040 ft 384 kts 133°
2026-04-25 01:11 13.74406 121.96261 32351 ft 386 kts 133°
2026-04-25 01:11 13.72675 121.98386 32662 ft 388 kts 133°
2026-04-25 01:11 13.70937 122.00518 32925 ft 391 kts 133°
2026-04-25 01:12 13.67368 122.04876 33012 ft 410 kts 133°
2026-04-25 01:12 13.63593 122.09485 33012 ft 430 kts 133°
2026-04-25 01:13 13.59658 122.14304 33012 ft 448 kts 133°
2026-04-25 01:13 13.55564 122.19302 33010 ft 464 kts 133°
2026-04-25 01:14 13.51395 122.24392 33010 ft 468 kts 133°
2026-04-25 01:14 13.47201 122.29520 33012 ft 468 kts 133°
2026-04-25 01:15 13.43024 122.34618 33011 ft 468 kts 133°
2026-04-25 01:15 13.38819 122.39744 33009 ft 468 kts 133°
2026-04-25 01:16 13.34622 122.44868 33014 ft 468 kts 133°
2026-04-25 01:16 13.30443 122.49950 33015 ft 468 kts 133°
2026-04-25 01:17 13.26240 122.55060 33018 ft 467 kts 133°
2026-04-25 01:17 13.22044 122.60167 33017 ft 467 kts 133°
2026-04-25 01:18 13.17855 122.65262 33018 ft 466 kts 133°
2026-04-25 01:18 13.13693 122.70320 33024 ft 466 kts 133°
2026-04-25 01:19 13.09504 122.75395 33019 ft 465 kts 133°
2026-04-25 01:19 13.05321 122.80464 33025 ft 465 kts 133°
2026-04-25 01:20 13.01142 122.85535 33022 ft 464 kts 132°
2026-04-25 01:20 12.96995 122.90567 33023 ft 464 kts 133°
2026-04-25 01:21 12.92823 122.95618 33028 ft 463 kts 132°
2026-04-25 01:21 12.88644 123.00669 33022 ft 463 kts 132°
2026-04-25 01:22 12.84506 123.05682 33023 ft 463 kts 132°
2026-04-25 01:22 12.80346 123.10718 33029 ft 462 kts 132°
2026-04-25 01:23 12.76184 123.15743 33021 ft 462 kts 132°
2026-04-25 01:23 12.72012 123.20772 33023 ft 462 kts 132°
2026-04-25 01:24 12.67872 123.25765 33024 ft 462 kts 132°
2026-04-25 01:24 12.63717 123.30786 33025 ft 461 kts 132°
2026-04-25 01:25 12.59560 123.35801 33022 ft 461 kts 132°
2026-04-25 01:25 12.55429 123.40780 33014 ft 461 kts 132°
2026-04-25 01:26 12.51266 123.45788 33021 ft 461 kts 132°
2026-04-25 01:26 12.47100 123.50795 33025 ft 461 kts 132°
2026-04-25 01:27 12.42940 123.55807 33022 ft 461 kts 132°
2026-04-25 01:27 12.38804 123.60786 33021 ft 461 kts 132°
2026-04-25 01:28 12.32634 123.68300 33023 ft 461 kts 131°
2026-04-25 01:28 12.28552 123.73374 33014 ft 460 kts 131°
2026-04-25 01:29 12.24464 123.78444 33022 ft 460 kts 131°
2026-04-25 01:29 12.20391 123.83464 33014 ft 460 kts 131°
2026-04-25 01:30 12.16299 123.88501 32880 ft 460 kts 131°
2026-04-25 01:30 12.14258 123.91019 32632 ft 460 kts 131°
2026-04-25 01:30 12.12214 123.93540 32386 ft 461 kts 131°
2026-04-25 01:31 12.10190 123.96037 32145 ft 462 kts 131°
2026-04-25 01:31 12.08135 123.98568 31906 ft 463 kts 131°
2026-04-25 01:31 12.06077 124.01100 31666 ft 464 kts 131°
2026-04-25 01:31 12.04000 124.03653 31432 ft 466 kts 131°
2026-04-25 01:32 12.01925 124.06201 30587 ft 469 kts 130°
2026-04-25 01:32 11.99827 124.08776 29797 ft 470 kts 130°
2026-04-25 01:32 11.97765 124.11310 29103 ft 465 kts 130°
2026-04-25 01:32 11.95706 124.13838 28434 ft 461 kts 130°
2026-04-25 01:33 11.93670 124.16343 27769 ft 456 kts 130°
2026-04-25 01:33 11.91651 124.18833 27120 ft 453 kts 130°
2026-04-25 01:33 11.89651 124.21296 26467 ft 449 kts 130°
2026-04-25 01:33 11.87665 124.23740 25826 ft 445 kts 130°
2026-04-25 01:34 11.85689 124.26166 25179 ft 442 kts 130°
2026-04-25 01:34 11.83724 124.28575 24541 ft 438 kts 130°
2026-04-25 01:34 11.81781 124.30955 23919 ft 435 kts 130°
2026-04-25 01:34 11.79848 124.33332 23272 ft 431 kts 130°
2026-04-25 01:35 11.77944 124.35673 22683 ft 426 kts 130°
2026-04-25 01:35 11.76089 124.37951 22158 ft 419 kts 130°
2026-04-25 01:35 11.74235 124.40222 21644 ft 414 kts 130°
2026-04-25 01:35 11.72396 124.42473 21146 ft 409 kts 130°
2026-04-25 01:36 11.70581 124.44689 20639 ft 404 kts 130°
2026-04-25 01:36 11.68795 124.46869 20134 ft 402 kts 130°
2026-04-25 01:36 11.67012 124.49055 19619 ft 399 kts 130°
2026-04-25 01:36 11.65241 124.51230 19098 ft 397 kts 130°
2026-04-25 01:37 11.63475 124.53395 18560 ft 396 kts 130°
2026-04-25 01:37 11.61710 124.55558 17980 ft 396 kts 130°
2026-04-25 01:37 11.59948 124.57716 17419 ft 393 kts 130°
2026-04-25 01:37 11.58199 124.59858 16868 ft 390 kts 130°
2026-04-25 01:38 11.56491 124.61950 16330 ft 388 kts 130°
2026-04-25 01:38 11.54767 124.64062 15780 ft 385 kts 130°
2026-04-25 01:38 11.53055 124.66159 15250 ft 383 kts 129°
2026-04-25 01:38 11.51354 124.68241 14722 ft 381 kts 129°
2026-04-25 01:39 11.49522 124.70185 14175 ft 379 kts 140°
2026-04-25 01:39 11.47378 124.71758 13611 ft 378 kts 145°
2026-04-25 01:39 11.45223 124.73249 13041 ft 365 kts 145°
2026-04-25 01:39 11.43852 124.74197 12697 ft 353 kts 144°
2026-04-25 01:40 11.41236 124.76006 12037 ft 332 kts 144°
2026-04-25 01:40 11.39323 124.77330 11537 ft 331 kts 144°
2026-04-25 01:40 11.38059 124.78208 11202 ft 331 kts 144°
2026-04-25 01:40 11.36164 124.79525 10861 ft 325 kts 144°
2026-04-25 01:41 11.34358 124.80777 10768 ft 300 kts 144°
2026-04-25 01:41 11.32696 124.81924 10673 ft 277 kts 143°
2026-04-25 01:41 11.31167 124.82978 10566 ft 261 kts 143°
2026-04-25 01:41 11.29691 124.84001 10451 ft 252 kts 143°
2026-04-25 01:42 11.28258 124.84993 10344 ft 246 kts 143°
2026-04-25 01:42 11.26822 124.85929 10229 ft 245 kts 150°
2026-04-25 01:42 11.25219 124.86563 9998 ft 251 kts 163°
2026-04-25 01:42 11.23492 124.86951 9601 ft 255 kts 165°
2026-04-25 01:43 11.21758 124.87336 9250 ft 255 kts 165°
2026-04-25 01:43 11.20015 124.87723 8887 ft 256 kts 165°
2026-04-25 01:43 11.18288 124.88106 8540 ft 256 kts 165°
2026-04-25 01:43 11.16544 124.88493 8193 ft 256 kts 165°
2026-04-25 01:44 11.14792 124.88881 7836 ft 257 kts 165°
2026-04-25 01:44 11.13041 124.89270 7476 ft 258 kts 164°
2026-04-25 01:44 11.11309 124.89652 7136 ft 250 kts 165°
2026-04-25 01:44 11.09629 124.90024 6795 ft 244 kts 164°
2026-04-25 01:45 11.07981 124.90393 6462 ft 240 kts 164°
2026-04-25 01:45 11.06397 124.90757 6120 ft 232 kts 160°
2026-04-25 01:45 11.05017 124.91472 5807 ft 217 kts 136°
2026-04-25 01:45 11.04085 124.92607 5506 ft 205 kts 114°
2026-04-25 01:46 11.03660 124.93965 5219 ft 201 kts 94°
2026-04-25 01:46 11.03574 124.95384 4940 ft 199 kts 92°
2026-04-25 01:46 11.03487 124.96776 4628 ft 194 kts 93°
2026-04-25 01:46 11.03397 124.98150 4338 ft 193 kts 92°
2026-04-25 01:47 11.03310 124.99500 4054 ft 188 kts 92°
2026-04-25 01:47 11.03571 125.00757 3784 ft 183 kts 58°
2026-04-25 01:47 11.04575 125.01526 3529 ft 193 kts 18°
2026-04-25 01:47 11.05941 125.01582 3246 ft 196 kts
2026-04-25 01:48 11.07295 125.01626 2959 ft 193 kts
2026-04-25 01:48 11.08654 125.01733 2692 ft 200 kts
2026-04-25 01:48 11.10027 125.01851 2426 ft 195 kts
2026-04-25 01:48 11.11375 125.01963 2148 ft 200 kts
2026-04-25 01:49 11.12770 125.02073 1846 ft 198 kts
2026-04-25 01:49 11.14121 125.02172 1579 ft 191 kts
2026-04-25 01:49 11.15390 125.02260 1330 ft 172 kts
2026-04-25 01:49 11.16520 125.02338 1115 ft 154 kts
2026-04-25 01:50 11.17557 125.02409 910 ft 147 kts
2026-04-25 01:50 11.18572 125.02480 721 ft 145 kts
2026-04-25 01:50 11.19558 125.02548 485 ft 143 kts 10°
2026-04-25 01:50 11.20546 125.02626 304 ft 142 kts
2026-04-25 01:51 11.21531 125.02693 99 ft 141 kts
2026-04-25 01:51 11.22466 125.02755 17 ft 115 kts
2026-04-25 01:51 11.22986 125.02790 15 ft 51 kts
2026-04-25 01:51 11.23304 125.02810 16 ft 40 kts
2026-04-25 01:52 11.23531 125.02825 17 ft 28 kts
2026-04-25 01:52 11.23664 125.02809 17 ft 13 kts 333°
2026-04-25 01:52 11.23682 125.02828 17 ft 5 kts 121°
2026-04-25 01:52 11.23629 125.02832 18 ft 11 kts 185°
2026-04-25 01:53 11.23532 125.02825 18 ft 17 kts 184°
2026-04-25 01:53 11.23389 125.02816 15 ft 23 kts 183°
2026-04-25 01:53 11.23218 125.02806 15 ft 26 kts 184°
2026-04-25 01:53 11.23036 125.02793 15 ft 27 kts 184°
2026-04-25 01:54 11.22864 125.02781 14 ft 25 kts 184°
2026-04-25 01:54 11.22712 125.02772 16 ft 20 kts 184°
2026-04-25 01:54 11.22593 125.02764 18 ft 10 kts 183°
2026-04-25 01:54 11.22563 125.02720 17 ft 8 kts 278°
2026-04-25 01:55 11.22604 125.02685 16 ft 7 kts 350°
2026-04-25 01:55 11.22650 125.02686 17 ft 5 kts
2026-04-25 01:55 11.22670 125.02671 16 ft 3 kts 305°
2026-04-25 01:55 11.22680 125.02659 18 ft 2 kts 307°
2026-04-25 01:56 11.22684 125.02653 15 ft 0 kts 308°